Change the Weather History Date:

Monday, May 21, 2012

  Actual Average Record
Temperature  
Mean Temperature 60 °F -  
Max Temperature 70 °F 62 °F 75 °F (2002)
Min Temperature 50 °F 48 °F 37 °F (2008)
Degree Days  
Heating Degree Days 5    
Growing Degree Days 10 (Base 50)    
Moisture  
Dew Point 55 °F    
Average Humidity 85    
Maximum Humidity 100    
Minimum Humidity 65    
Precipitation  
Precipitation 0.00 in - - ()
Sea Level Pressure  
Sea Level Pressure 29.63 in    
Wind  
Wind Speed 7 mph ()    
Max Wind Speed 17 mph    
Max Gust Speed -    
Visibility 5.2 miles    
Events      
Averages and records for this station are not official NWS values.
T = Trace of Precipitation, MM = Missing Value Source: Averaged Metar Reports

Daily Weather History Graph

Daily Weather History Graph

Search for Another Location

Airport or City:

Trip Planner

Search our weather history database for the weather conditions in past years. The results will help you decide how hot, cold, wet, or windy it might be!

Date:

Astronomy

May. 21, 2012 Rise Set
Actual Time 5:28 AM CEST 9:39 PM CEST
Civil Twilight 4:42 AM CEST 10:26 PM CEST
Nautical Twilight 3:34 AM CEST 11:34 PM CEST
Astronomical Twilight 2:06 AM CEST 1:01 AM CEST
Moon 5:38 AM CEST (5/21) 10:19 PM CEST (5/21)
Length of Visible Light 17h 43m
Length of Day
16h 11m
New Moon, 0% of the Moon is Illuminated
May 21
New Moon
May 28
First Quarter
Jun 4
Full
Jun 11
Last Quarter
Jun 19
New

Hourly Weather History & Observations

Time (CEST) Temp. Dew Point Humidity Pressure Visibility Wind Dir Wind Speed Gust Speed Precip Events Conditions
2:00 AM 52 °F 51 °F 94% 29.68 in 3 mi NNE 4.5 mph - -   Mist
3:26 AM 53.6 °F 51.8 °F 94% 29.65 in 2.8 mi NE 4.6 mph - N/A   Scattered Clouds
3:32 AM 53.6 °F 51.8 °F 94% 29.65 in 3.1 mi NE 4.6 mph - N/A   Scattered Clouds
3:34 AM 53.6 °F 51.8 °F 94% 29.65 in - NE 4.6 mph - N/A   Mist
3:55 AM 51.8 °F 50.0 °F 94% 29.65 in 3.7 mi NNE 3.5 mph - N/A   Mist
4:08 AM 51.8 °F 50.0 °F 94% 29.65 in 3.1 mi NNE 4.6 mph - N/A   Mist
4:09 AM 51.8 °F 50.0 °F 94% 29.65 in - NE 3.5 mph - N/A   Mist
4:17 AM 51.8 °F 50.0 °F 94% 29.65 in 3.1 mi NNE 2.3 mph - N/A   Mist
4:25 AM 51.8 °F 50.0 °F 94% 29.65 in 3.1 mi NNW 3.5 mph - N/A   Mostly Cloudy
4:31 AM 50.0 °F 48.2 °F 94% 29.65 in - North 4.6 mph - N/A   Overcast
4:38 AM 51.8 °F 50.0 °F 94% 29.65 in 3.1 mi NNE 4.6 mph - N/A   Overcast
4:39 AM 51.8 °F 50.0 °F 94% 29.65 in - NNE 4.6 mph - N/A   Overcast
4:46 AM 51.8 °F 50.0 °F 94% 29.65 in 3.1 mi NNE 4.6 mph - N/A   Overcast
4:55 AM 51.8 °F 50.0 °F 94% 29.65 in 3.7 mi NNE 4.6 mph - N/A   Scattered Clouds
5:08 AM 51.8 °F 50.0 °F 94% 29.62 in 3.7 mi NNE 4.6 mph - N/A   Scattered Clouds
5:25 AM 51.8 °F 51.8 °F 100% 29.62 in 3.1 mi NNE 8.1 mph - N/A   Scattered Clouds
5:43 AM 53.6 °F 51.8 °F 94% 29.62 in - NNE 8.1 mph - N/A   Mist
5:49 AM 51.8 °F 51.8 °F 100% 29.62 in 3.1 mi NNE 8.1 mph - N/A   Partly Cloudy
5:55 AM 51.8 °F 51.8 °F 100% 29.62 in 3.1 mi NNE 8.1 mph - N/A   Partly Cloudy
6:08 AM 51.8 °F 51.8 °F 100% 29.62 in 3.1 mi NE 9.2 mph - N/A   Mist
6:25 AM 51.8 °F 50.0 °F 94% 29.62 in 3.7 mi NE 8.1 mph - N/A   Mist
6:50 AM 53.6 °F 51.8 °F 94% 29.62 in 5.0 mi NNE 5.8 mph - N/A   Mist
6:55 AM 53.6 °F 51.8 °F 94% 29.62 in 4.3 mi NNE 5.8 mph - N/A   Mist
7:03 AM 53.6 °F 51.8 °F 94% 29.62 in 5.0 mi NE 6.9 mph - N/A   Mist
7:09 AM 55.4 °F 51.8 °F 88% 29.62 in 4.3 mi NE 8.1 mph - N/A   Partly Cloudy
7:15 AM 55.4 °F 51.8 °F 88% 29.62 in 5.0 mi NE 6.9 mph - N/A   Partly Cloudy
7:25 AM 55.4 °F 53.6 °F 94% 29.62 in 5.0 mi NNE 6.9 mph - N/A   Mist
7:34 AM 57.2 °F 53.6 °F 88% 29.62 in 4.3 mi NE 6.9 mph - N/A   Mist
7:37 AM 57.2 °F 53.6 °F 88% 29.62 in 5.0 mi NE 6.9 mph - N/A   Mist
7:44 AM 57.2 °F 53.6 °F 88% 29.62 in 4.3 mi NE 8.1 mph - N/A   Mist
7:47 AM 57.2 °F 53.6 °F 88% 29.62 in 5.0 mi NE 8.1 mph - N/A   Mist
7:55 AM 57.2 °F 53.6 °F 88% 29.62 in 5.6 mi NE 8.1 mph - N/A   Mist
8:00 AM 58 °F 55 °F 86% 29.64 in 6 mi NE 8.9 mph - -   Mist
8:05 AM 57.2 °F 55.4 °F 94% 29.62 in 4.3 mi NE 8.1 mph - N/A   Partly Cloudy
8:09 AM 59.0 °F 55.4 °F 88% 29.62 in 5.6 mi NE 9.2 mph - N/A   Partly Cloudy
8:25 AM 59.0 °F 55.4 °F 88% 29.62 in 6.2 mi NE 8.1 mph - N/A   Unknown
8:44 AM 60.8 °F 55.4 °F 82% 29.62 in 6.2 mi NNE 8.1 mph - N/A   Unknown
8:55 AM 60.8 °F 55.4 °F 82% 29.62 in 6.2 mi NE 9.2 mph - N/A   Unknown
9:25 AM 60.8 °F 57.2 °F 88% 29.62 in 6.2 mi NE 9.2 mph - N/A   Mostly Cloudy
9:55 AM 62.6 °F 57.2 °F 82% 29.62 in 6.2 mi NNE 10.4 mph - N/A   Partly Cloudy
10:11 AM 62.6 °F 57.2 °F 82% 29.62 in 1.2 mi NNE 10.4 mph - N/A   Partly Cloudy
10:15 AM 62.6 °F 57.2 °F 82% 29.62 in 6.2 mi NNE 10.4 mph - N/A   Partly Cloudy
10:25 AM 62.6 °F 57.2 °F 82% 29.62 in 6.2 mi NE 11.5 mph - N/A   Mostly Cloudy
10:55 AM 64.4 °F 59.0 °F 83% 29.62 in 6.2 mi NNE 9.2 mph - N/A   Mostly Cloudy
11:09 AM 64.4 °F 59.0 °F 83% 29.62 in 6.2 mi NNE 8.1 mph - N/A   Partly Cloudy
11:25 AM 66.2 °F 59.0 °F 78% 29.62 in 6.2 mi NNE 8.1 mph - N/A   Scattered Clouds
11:55 AM 66.2 °F 59.0 °F 78% 29.62 in 6.2 mi NNE 11.5 mph - N/A   Scattered Clouds
12:25 PM 66.2 °F 59.0 °F 78% 29.62 in 6.2 mi NNE 11.5 mph - N/A   Partly Cloudy
12:55 PM 68.0 °F 59.0 °F 73% 29.62 in 6.2 mi NNE 11.5 mph - N/A   Partly Cloudy
1:25 PM 68.0 °F 59.0 °F 73% 29.62 in 6.2 mi NE 13.8 mph - N/A   Partly Cloudy
1:35 PM 68.0 °F 60.8 °F 78% 29.62 in 3.7 mi NE 12.7 mph - N/A   Haze
1:36 PM 68.0 °F 59.0 °F 73% 29.62 in 6.2 mi NE 12.7 mph - N/A   Partly Cloudy
1:55 PM 68.0 °F 59.0 °F 73% 29.62 in 6.2 mi NNE 11.5 mph - N/A   Scattered Clouds
2:00 PM 69 °F 60 °F 65% 29.63 in 9 mi NE 11.2 mph - -   Scattered Clouds
2:25 PM 68.0 °F 59.0 °F 73% 29.62 in 6.2 mi NE 12.7 mph - N/A   Scattered Clouds
2:55 PM 66.2 °F 59.0 °F 78% 29.62 in 6.2 mi NE 12.7 mph - N/A   Partly Cloudy
3:25 PM 68.0 °F 59.0 °F 73% 29.62 in 6.2 mi NE 15.0 mph - N/A   Mostly Cloudy
3:55 PM 69.8 °F 60.8 °F 73% 29.62 in 6.2 mi NE 13.8 mph - N/A   Partly Cloudy
4:22 PM 69.8 °F 60.8 °F 73% 29.62 in 6.2 mi NE 16.1 mph - N/A   Unknown
4:25 PM 69.8 °F 60.8 °F 73% 29.62 in 6.2 mi NE 16.1 mph - N/A   Unknown
4:55 PM 69.8 °F 60.8 °F 73% 29.62 in 6.2 mi NE 17.3 mph - N/A   Unknown
5:25 PM 69.8 °F 60.8 °F 73% 29.62 in 6.2 mi NE 17.3 mph - N/A   Overcast
5:55 PM 68.0 °F 59.0 °F 73% 29.62 in 6.2 mi NE 15.0 mph - N/A   Overcast
6:25 PM 68.0 °F 59.0 °F 73% 29.62 in 6.2 mi NE 16.1 mph - N/A   Overcast
6:55 PM 68.0 °F 59.0 °F 73% 29.62 in 6.2 mi NE 12.7 mph - N/A   Overcast
7:25 PM 66.2 °F 59.0 °F 78% 29.62 in 6.2 mi NE 13.8 mph - N/A   Partly Cloudy
7:55 PM 64.4 °F 57.2 °F 77% 29.62 in 6.2 mi NE 12.7 mph - N/A   Overcast
8:00 PM 64 °F 58 °F 73% 29.64 in 8 mi NNE 11.2 mph - -   Mostly Cloudy
8:25 PM 62.6 °F 57.2 °F 82% 29.62 in 6.2 mi NNE 11.5 mph - N/A   Partly Cloudy
8:55 PM 60.8 °F 55.4 °F 82% 29.62 in 6.2 mi NNE 10.4 mph - N/A   Overcast
9:25 PM 59.0 °F 55.4 °F 88% 29.62 in 6.2 mi NNE 10.4 mph - N/A   Mostly Cloudy
9:55 PM 59.0 °F 55.4 °F 88% 29.65 in 6.2 mi NNE 9.2 mph - N/A   Overcast
10:25 PM 59.0 °F 55.4 °F 88% 29.65 in 6.2 mi NNE 9.2 mph - N/A   Overcast
10:55 PM 57.2 °F 53.6 °F 88% 29.65 in 6.2 mi NNE 9.2 mph - N/A   Unknown
11:25 PM 57.2 °F 53.6 °F 88% 29.65 in 6.2 mi NNE 9.2 mph - N/A   Unknown
11:55 PM 57.2 °F 53.6 °F 88% 29.65 in 5.6 mi NNE 8.1 mph - N/A   Mostly Cloudy